VTK519 EGLL-ULLI

Flight info

Callsign VTK519
Flight time N/A
Altitude 35000
Route N0462F350 BPK Q295 BRAIN M197 REDFA DCT AGISU DCT LUTIR DCT KULUD DCT ALAMI DCT EVADI Y370 DIVAM DCT ARVEP DCT OLEMA DCT AKARU
Aircraft B772/H-SDE2E3FGHIJ5LORVWXY/LB1D1

Departure

Time N/A
Airport London Heathrow Airport (EGLL)

Arrival

Time 2026-05-01 08:43
Airport Pulkovo Airport (ULLI)
Time Latitude Longitude Altitude Speed Heading
2026-05-01 07:23 56.81662 13.81485 37381 ft 470 kts 54°
2026-05-01 07:24 56.87069 13.96402 37374 ft 470 kts 55°
2026-05-01 07:24 56.90670 14.06389 37365 ft 470 kts 54°
2026-05-01 07:25 56.94259 14.16382 37367 ft 470 kts 55°
2026-05-01 07:25 56.97840 14.26397 37376 ft 470 kts 55°
2026-05-01 07:26 57.01416 14.36438 37356 ft 470 kts 55°
2026-05-01 07:26 57.04977 14.46478 37356 ft 470 kts 55°
2026-05-01 07:27 57.08533 14.56547 37355 ft 469 kts 55°
2026-05-01 07:27 57.12080 14.66632 37349 ft 469 kts 55°
2026-05-01 07:28 57.15616 14.76727 37349 ft 469 kts 55°
2026-05-01 07:28 57.19145 14.86847 37336 ft 469 kts 55°
2026-05-01 07:29 57.22667 14.96987 37341 ft 469 kts 55°
2026-05-01 07:29 57.26178 15.07141 37342 ft 470 kts 55°
2026-05-01 07:30 57.29688 15.17335 37334 ft 469 kts 55°
2026-05-01 07:30 57.33183 15.27527 37320 ft 470 kts 55°
2026-05-01 07:31 57.36674 15.37750 37323 ft 469 kts 55°
2026-05-01 07:32 57.45355 15.63368 37314 ft 469 kts 55°
2026-05-01 07:33 57.50536 15.78789 37315 ft 469 kts 55°
2026-05-01 07:33 57.55705 15.94276 37307 ft 469 kts 55°
2026-05-01 07:34 57.60851 16.09789 37299 ft 469 kts 55°
2026-05-01 07:35 57.64271 16.20159 37298 ft 469 kts 55°
2026-05-01 07:35 57.67679 16.30536 37298 ft 469 kts 56°
2026-05-01 07:36 57.71080 16.40940 37296 ft 469 kts 56°
2026-05-01 07:36 57.74471 16.51356 37285 ft 469 kts 56°
2026-05-01 07:37 57.79545 16.67029 37301 ft 469 kts 56°
2026-05-01 07:37 57.82911 16.77484 37291 ft 468 kts 56°
2026-05-01 07:38 57.86266 16.87952 37292 ft 468 kts 56°
2026-05-01 07:39 57.91276 17.03669 37273 ft 467 kts 56°
2026-05-01 07:39 57.96266 17.19425 37295 ft 468 kts 56°
2026-05-01 07:40 57.99586 17.29967 37291 ft 468 kts 56°
2026-05-01 07:40 58.02878 17.40471 37308 ft 468 kts 56°
2026-05-01 07:41 58.06186 17.51071 37281 ft 468 kts 56°
2026-05-01 07:42 58.11122 17.66979 37290 ft 467 kts 56°
2026-05-01 07:42 58.14401 17.77605 37281 ft 467 kts 56°
2026-05-01 07:43 58.17666 17.88235 37281 ft 467 kts 56°
2026-05-01 07:43 58.22550 18.04226 37277 ft 467 kts 56°
2026-05-01 07:44 58.29032 18.25617 37280 ft 467 kts 56°
2026-05-01 07:45 58.32262 18.36351 37276 ft 468 kts 56°
2026-05-01 07:45 58.35488 18.47121 37276 ft 469 kts 57°
2026-05-01 07:46 58.38711 18.57931 37276 ft 469 kts 57°
2026-05-01 07:47 58.43538 18.74218 37269 ft 470 kts 57°
2026-05-01 07:47 58.46741 18.85090 37271 ft 470 kts 57°
2026-05-01 07:48 58.51534 19.01451 37270 ft 471 kts 57°
2026-05-01 07:48 58.54729 19.12383 37278 ft 471 kts 56°
2026-05-01 07:49 58.59491 19.28809 37265 ft 469 kts 57°
2026-05-01 07:50 58.62641 19.39767 37264 ft 468 kts 57°
2026-05-01 07:50 58.67339 19.56203 37262 ft 468 kts 57°
2026-05-01 07:51 58.69933 19.65321 37267 ft 468 kts 57°
2026-05-01 07:52 58.74601 19.81854 37265 ft 469 kts 57°
2026-05-01 07:52 58.77709 19.92916 37261 ft 470 kts 57°
2026-05-01 07:53 58.82355 20.09539 37258 ft 469 kts 57°
2026-05-01 07:53 58.85439 20.20637 37255 ft 469 kts 57°
2026-05-01 07:55 58.93098 20.48444 37258 ft 469 kts 58°
2026-05-01 07:56 59.00701 20.76389 37256 ft 469 kts 58°
2026-05-01 07:57 59.05272 20.93184 37246 ft 467 kts 55°
2026-05-01 07:58 59.12044 21.14663 37259 ft 466 kts 53°
2026-05-01 07:59 59.18798 21.36220 37253 ft 466 kts 54°
2026-05-01 08:00 59.28843 21.68797 37261 ft 468 kts 54°
2026-05-01 08:01 59.35515 21.90676 37256 ft 468 kts 54°
2026-05-01 08:02 59.40474 22.07047 37248 ft 467 kts 54°
2026-05-01 08:03 59.45419 22.23488 37255 ft 466 kts 54°
2026-05-01 08:03 59.50350 22.39997 37248 ft 467 kts 54°
2026-05-01 08:04 59.56890 22.62132 37245 ft 468 kts 55°
2026-05-01 08:05 59.61776 22.78825 37250 ft 468 kts 55°
2026-05-01 08:06 59.66640 22.95554 37238 ft 468 kts 56°
2026-05-01 08:07 59.73076 23.17951 37231 ft 467 kts 56°
2026-05-01 08:08 59.77861 23.34777 37232 ft 467 kts 56°
2026-05-01 08:09 59.84163 23.57320 37224 ft 470 kts 59°
2026-05-01 08:09 59.86475 23.69532 37225 ft 476 kts 68°
2026-05-01 08:10 59.90254 23.94833 37216 ft 476 kts 69°
2026-05-01 08:11 59.94050 24.20044 37214 ft 474 kts 68°
2026-05-01 08:12 59.96862 24.38879 37224 ft 473 kts 69°
2026-05-01 08:13 59.99655 24.57815 37235 ft 474 kts 69°
2026-05-01 08:13 60.02432 24.76868 37201 ft 473 kts 69°
2026-05-01 08:14 60.04254 24.89492 37199 ft 472 kts 69°
2026-05-01 08:14 60.06063 25.02115 37194 ft 472 kts 69°
2026-05-01 08:15 60.08752 25.21068 37199 ft 471 kts 69°
2026-05-01 08:16 60.10528 25.33712 37205 ft 471 kts 69°
2026-05-01 08:16 60.12294 25.46376 37218 ft 472 kts 70°
2026-05-01 08:17 60.14037 25.58980 37202 ft 471 kts 70°
2026-05-01 08:17 60.15787 25.71745 37192 ft 471 kts 70°
2026-05-01 08:18 60.17501 25.84337 37189 ft 470 kts 70°
2026-05-01 08:18 60.19214 25.97018 37060 ft 473 kts 70°
2026-05-01 08:19 60.20928 26.09820 36257 ft 472 kts 70°
2026-05-01 08:19 60.21770 26.16160 35841 ft 469 kts 70°
2026-05-01 08:19 60.22612 26.22499 35363 ft 468 kts 69°
2026-05-01 08:19 60.23448 26.28823 34876 ft 467 kts 69°
2026-05-01 08:20 60.24227 26.35184 34428 ft 468 kts 73°
2026-05-01 08:20 60.24707 26.41682 33913 ft 471 kts 78°
2026-05-01 08:20 60.24886 26.48292 33356 ft 475 kts 84°
2026-05-01 08:20 60.24807 26.54962 32750 ft 478 kts 85°
2026-05-01 08:21 60.24697 26.61678 32109 ft 480 kts 85°
2026-05-01 08:21 60.24581 26.68380 31479 ft 477 kts 85°
2026-05-01 08:21 60.24471 26.75008 30962 ft 471 kts 85°
2026-05-01 08:21 60.24369 26.81559 30470 ft 466 kts 85°
2026-05-01 08:22 60.24273 26.88036 29930 ft 461 kts 85°
2026-05-01 08:22 60.24179 26.94468 29377 ft 457 kts 85°
2026-05-01 08:22 60.24084 27.00824 28939 ft 451 kts 85°
2026-05-01 08:22 60.23989 27.07109 28533 ft 451 kts 85°
2026-05-01 08:23 60.23892 27.13442 28116 ft 454 kts 85°
2026-05-01 08:23 60.23791 27.19779 27500 ft 453 kts 85°
2026-05-01 08:23 60.23684 27.26065 26890 ft 450 kts 85°
2026-05-01 08:23 60.23574 27.32336 26293 ft 446 kts 85°
2026-05-01 08:24 60.23463 27.38550 25708 ft 443 kts 85°
2026-05-01 08:24 60.23351 27.44714 25134 ft 440 kts 85°
2026-05-01 08:24 60.23223 27.50849 24566 ft 438 kts 86°
2026-05-01 08:24 60.23024 27.56956 23994 ft 436 kts 88°
2026-05-01 08:25 60.22790 27.63019 23355 ft 435 kts 88°
2026-05-01 08:25 60.22546 27.69066 22749 ft 432 kts 88°
2026-05-01 08:25 60.22306 27.75059 22164 ft 428 kts 88°
2026-05-01 08:25 60.22070 27.81017 21639 ft 425 kts 88°
2026-05-01 08:26 60.21839 27.86924 21067 ft 422 kts 88°
2026-05-01 08:26 60.21611 27.92782 20521 ft 418 kts 88°
2026-05-01 08:26 60.21385 27.98584 19990 ft 415 kts 88°
2026-05-01 08:26 60.21158 28.04357 19448 ft 413 kts 88°
2026-05-01 08:27 60.20930 28.10104 18937 ft 410 kts 88°
2026-05-01 08:27 60.20701 28.15798 18406 ft 408 kts 88°
2026-05-01 08:27 60.20471 28.21471 17832 ft 406 kts 88°
2026-05-01 08:27 60.20239 28.27100 17276 ft 402 kts 88°
2026-05-01 08:28 60.20008 28.32672 16753 ft 399 kts 88°
2026-05-01 08:28 60.19775 28.38218 16257 ft 396 kts 88°
2026-05-01 08:28 60.19542 28.43704 15766 ft 393 kts 89°
2026-05-01 08:28 60.19310 28.49162 15286 ft 390 kts 89°
2026-05-01 08:29 60.19077 28.54573 14829 ft 387 kts 89°
2026-05-01 08:29 60.18843 28.59945 14341 ft 385 kts 89°
2026-05-01 08:29 60.18588 28.65295 13844 ft 384 kts 91°
2026-05-01 08:29 60.18208 28.70597 13317 ft 383 kts 94°
2026-05-01 08:30 60.17769 28.75863 12810 ft 381 kts 94°
2026-05-01 08:30 60.17323 28.81094 12317 ft 379 kts 95°
2026-05-01 08:30 60.16887 28.86285 11860 ft 375 kts 95°
2026-05-01 08:30 60.16464 28.91397 11588 ft 366 kts 95°
2026-05-01 08:31 60.16060 28.96285 11310 ft 344 kts 94°
2026-05-01 08:31 60.15683 29.00881 11035 ft 325 kts 94°
2026-05-01 08:31 60.15328 29.05247 10749 ft 308 kts 94°
2026-05-01 08:31 60.14992 29.09411 10413 ft 299 kts 94°
2026-05-01 08:32 60.14665 29.13448 10130 ft 296 kts 94°
2026-05-01 08:32 60.14333 29.17499 9816 ft 293 kts 95°
2026-05-01 08:32 60.14004 29.21504 9551 ft 289 kts 95°
2026-05-01 08:32 60.13783 29.24178 9360 ft 286 kts 95°
2026-05-01 08:33 60.13358 29.29331 9036 ft 281 kts 95°
2026-05-01 08:33 60.13033 29.33206 8784 ft 283 kts 95°
2026-05-01 08:33 60.12711 29.37122 8519 ft 286 kts 95°
2026-05-01 08:33 60.12491 29.39794 8333 ft 287 kts 95°
2026-05-01 08:34 60.12166 29.43725 8052 ft 285 kts 95°
2026-05-01 08:34 60.11845 29.47596 7776 ft 284 kts 96°
2026-05-01 08:34 60.11229 29.51285 7525 ft 281 kts 119°
2026-05-01 08:34 60.09944 29.54252 7250 ft 285 kts 135°
2026-05-01 08:35 60.08447 29.56901 6982 ft 289 kts 136°
2026-05-01 08:35 60.06944 29.59614 6679 ft 291 kts 135°
2026-05-01 08:35 60.05465 29.62361 6362 ft 290 kts 135°
2026-05-01 08:35 60.04005 29.65084 6010 ft 282 kts 135°
2026-05-01 08:36 60.02587 29.67730 5630 ft 279 kts 135°
2026-05-01 08:36 60.01162 29.70393 5231 ft 279 kts 136°
2026-05-01 08:36 59.99757 29.72995 4867 ft 270 kts 136°
2026-05-01 08:36 59.98401 29.75507 4509 ft 263 kts 136°
2026-05-01 08:37 59.97064 29.77985 4251 ft 261 kts 137°
2026-05-01 08:37 59.95738 29.80444 3961 ft 259 kts 137°
2026-05-01 08:37 59.94416 29.82883 3644 ft 260 kts 137°
2026-05-01 08:37 59.93030 29.85082 3402 ft 247 kts 152°
2026-05-01 08:38 59.91500 29.86499 3186 ft 239 kts 156°
2026-05-01 08:38 59.90016 29.87859 3059 ft 230 kts 155°
2026-05-01 08:38 59.88596 29.89202 2935 ft 221 kts 155°
2026-05-01 08:38 59.87235 29.90493 2821 ft 213 kts 155°
2026-05-01 08:39 59.85950 29.91716 2837 ft 196 kts 155°
2026-05-01 08:39 59.84761 29.92899 2802 ft 189 kts 144°
2026-05-01 08:39 59.84021 29.95021 2762 ft 190 kts 109°
2026-05-01 08:39 59.83600 29.97507 2712 ft 186 kts 107°
2026-05-01 08:40 59.82912 30.02167 2147 ft 163 kts 106°
2026-05-01 08:40 59.82605 30.04246 1913 ft 152 kts 106°
2026-05-01 08:40 59.82307 30.06260 1739 ft 153 kts 107°
2026-05-01 08:41 59.82001 30.08297 1505 ft 153 kts 107°
2026-05-01 08:41 59.81699 30.10320 1307 ft 152 kts 106°
2026-05-01 08:41 59.81402 30.12329 1084 ft 152 kts 106°
2026-05-01 08:41 59.81104 30.14335 871 ft 152 kts 106°
2026-05-01 08:42 59.80807 30.16345 671 ft 152 kts 105°
2026-05-01 08:42 59.80506 30.18366 478 ft 153 kts 105°
2026-05-01 08:42 59.80206 30.20380 266 ft 151 kts 105°
2026-05-01 08:42 59.79908 30.22397 97 ft 149 kts 105°
2026-05-01 08:43 59.79644 30.24167 90 ft 110 kts 106°
2026-05-01 08:43 59.79478 30.25275 92 ft 57 kts 107°
2026-05-01 08:43 59.79406 30.25762 92 ft 30 kts 107°
2026-05-01 08:43 59.79356 30.26099 91 ft 17 kts 107°
2026-05-01 08:44 59.79330 30.26287 91 ft 11 kts 94°
2026-05-01 08:44 59.79371 30.26374 92 ft 9 kts 22°
2026-05-01 08:44 59.79431 30.26412 91 ft 9 kts 17°
2026-05-01 08:44 59.79484 30.26397 93 ft 8 kts 314°
2026-05-01 08:45 59.79505 30.26295 90 ft 8 kts 286°
2026-05-01 08:45 59.79521 30.26188 93 ft 8 kts 287°
2026-05-01 08:45 59.79537 30.26081 94 ft 8 kts 286°
2026-05-01 08:45 59.79560 30.26001 93 ft 6 kts 329°
2026-05-01 08:46 59.79601 30.26003 91 ft 6 kts 12°
2026-05-01 08:46 59.79640 30.26031 90 ft 6 kts 26°
2026-05-01 08:46 59.79677 30.26069 91 ft 6 kts 24°
2026-05-01 08:46 59.79716 30.26096 89 ft 6 kts 17°
2026-05-01 08:47 59.79756 30.26121 90 ft 6 kts 17°
2026-05-01 08:47 59.79796 30.26145 89 ft 6 kts 17°
2026-05-01 08:47 59.79833 30.26167 91 ft 6 kts 16°
2026-05-01 08:47 59.79868 30.26156 92 ft 5 kts 324°
2026-05-01 08:48 59.79886 30.26097 91 ft 5 kts 292°
2026-05-01 08:48 59.79895 30.26037 89 ft 2 kts 287°
2026-05-01 08:48 59.79898 30.26020 90 ft 1 kts 287°
2026-05-01 08:48 59.79900 30.26009 90 ft 0 kts 287°